DW9924 Weather Reports


time (UTC)temp
F
wind
direction
speed
knots
gust
knots
rain 1hr
in
rain 24hr
in
rain mn
in
humidity
%
barometer
mb
20260506200405 61 133 0.9 5.2 0.00 1.24 1.24 79 1012.1
20260506194906 61 110 1.7 2.6 0.00 1.24 1.24 80 1011.9
20260506194406 61 90 0.9 2.6 0.00 1.24 1.24 80 1011.8
20260506193406 61 160 0.9 5.2 0.00 1.24 1.24 80 1011.8
20260506191905 61 118 2.6 6.1 0.00 1.24 1.24 80 1011.5
20260506191405 61 159 1.7 6.1 0.00 1.24 1.24 81 1011.4
20260506190906 61 149 1.7 2.6 0.00 1.24 1.24 81 1011.3
20260506184905 61 140 1.7 5.2 0.00 1.24 1.24 81 1011.1
20260506184406 61 133 2.6 6.1 0.00 1.24 1.24 81 1011.1
20260506183408 61 133 2.6 7.0 0.00 1.24 1.24 81 1011.0
20260506181906 61 175 1.7 4.3 0.00 1.24 1.24 80 1010.8
20260506181405 61 135 2.6 5.2 0.00 1.24 1.24 81 1010.8
20260506180405 61 125 1.7 7.0 0.00 1.24 1.24 80 1010.5
20260506174408 62 130 2.6 7.8 0.00 1.24 1.24 79 1010.5
20260506173920 62 129 2.6 6.1 0.00 1.24 1.24 79 1010.5
20260506173405 62 151 2.6 7.0 0.00 1.24 1.24 79 1010.5
20260506171905 63 180 2.6 6.1 0.00 1.24 1.24 77 1010.4
20260506171405 63 156 3.5 7.0 0.00 1.24 1.24 77 1010.3
20260506170906 63 152 2.6 7.0 0.00 1.24 1.24 77 1010.3
20260506170405 63 124 2.6 7.8 0.00 1.24 1.24 77 1010.2
20260506164905 63 110 1.7 7.0 0.00 1.24 1.24 76 1010.3
20260506164406 63 161 3.5 7.0 0.00 1.24 1.24 77 1010.3
20260506163905 63 147 2.6 5.2 0.00 1.24 1.24 77 1010.4
20260506163405 63 148 2.6 6.1 0.00 1.24 1.24 78 1010.4
20260506161913 63 134 1.7 6.1 0.00 1.24 1.24 77 1010.3
20260506161404 64 140 2.6 7.0 0.00 1.24 1.24 77 1010.3
20260506160905 64 156 4.3 7.0 0.00 1.24 1.24 77 1010.3
20260506160405 64 158 2.6 7.8 0.00 1.24 1.24 77 1010.2
20260506154904 65 149 4.3 7.8 0.00 1.24 1.24 77 1010.2
20260506154405 65 192 1.7 6.1 0.00 1.24 1.24 79 1010.2
20260506153905 65 134 5.2 10.4 0.00 1.24 1.24 80 1010.2
20260506153404 64 141 4.3 7.8 0.00 1.24 1.24 79 1010.1
20260506151904 64 168 1.7 6.1 0.00 1.24 1.24 79 1010.2
20260506151407 64 163 2.6 6.1 0.00 1.24 1.24 78 1010.2
20260506150910 64 152 2.6 7.8 0.00 1.24 1.24 78 1010.3
20260506144904 65 197 0.9 2.6 0.00 1.24 1.24 79 1010.2
20260506144405 65 160 1.7 5.2 0.00 1.24 1.24 76 1010.1
20260506143905 66 181 1.7 4.3 0.00 1.24 1.24 75 1010.1
20260506143405 67 205 1.7 5.2 0.00 1.24 1.24 74 1010.1
20260506141904 68 142 2.6 5.2 0.00 1.24 1.24 73 1010.2
20260506141405 68 222 0.9 4.3 0.00 1.24 1.24 74 1010.2
20260506140405 68 196 0.9 4.3 0.00 1.24 1.24 75 1010.2
20260506134405 67 214 0.9 2.6 0.00 1.24 1.24 76 1010.3
20260506133905 67 236 0.9 7.0 0.00 1.24 1.24 78 1010.3
20260506133405 66 227 4.3 7.0 0.00 1.24 1.24 76 1010.4
20260506131904 66 243 2.6 7.0 0.00 1.24 1.24 79 1010.4
20260506131405 67 145 0.9 5.2 0.00 1.24 1.24 80 1010.4
20260506130907 67 141 2.6 5.2 0.00 1.24 1.24 81 1010.3
20260506130407 66 151 2.6 7.0 0.00 1.24 1.24 81 1010.3
20260506124905 66 186 2.6 4.3 0.00 1.24 1.24 81 1010.3
20260506123905 65 167 3.5 6.1 0.00 1.24 1.24 83 1010.2
20260506123405 65 171 2.6 7.0 0.00 1.24 1.24 83 1010.2
20260506121904 65 160 2.6 6.1 0.00 1.24 1.24 82 1010.1
20260506120904 65 161 2.6 6.1 0.00 1.24 1.24 82 1010.1
20260506120404 65 156 2.6 7.0 0.00 1.24 1.24 81 1010.0
20260506114904 67 163 1.7 6.1 0.00 1.24 1.24 80 1010.0
20260506114404 67 123 1.7 6.1 0.00 1.24 1.24 80 1010.0
20260506111920 65 137 0.9 4.3 0.00 1.24 1.24 84 1010.0
20260506110905 64 184 1.7 6.1 0.00 1.24 1.24 83 1010.0
20260506110404 65 167 2.6 5.2 0.00 1.24 1.24 82 1010.0
20260506104905 65 149 2.6 4.3 0.00 1.24 1.24 82 1010.1
20260506103904 66 174 1.7 2.6 0.00 1.24 1.24 81 1010.0
20260506103404 66 234 1.7 4.3 0.00 1.24 1.24 81 1010.1
20260506101404 64 233 1.7 2.6 0.00 1.24 1.24 84 1010.1
20260506100910 64 187 0.9 2.6 0.00 1.24 1.24 84 1010.0
20260506094905 64 221 1.7 2.6 0.00 1.24 1.24 85 1009.9
20260506094405 64 193 0.9 2.6 0.00 1.24 1.24 85 1009.9
20260506093405 64 230 0.9 4.3 0.00 1.24 1.24 86 1010.0
20260506091909 64 249 0.9 4.3 0.00 1.24 1.24 87 1009.8
20260506091407 64 215 0.9 2.6 0.00 1.24 1.24 86 1009.7
20260506090906 64 221 1.7 5.2 0.00 1.24 1.24 86 1009.7
20260506090410 64 249 0.9 5.2 0.00 1.24 1.24 87 1009.5
20260506084907 65 229 0.9 7.8 0.00 1.24 1.24 88 1009.4
20260506084407 65 251 2.6 4.3 0.00 1.24 1.24 88 1009.4
20260506083909 64 195 1.7 7.0 0.00 1.24 1.24 89 1009.3
20260506083407 64 203 1.7 10.4 0.00 1.24 1.24 91 1009.3
20260506081908 63 114 1.7 2.6 0.00 1.24 1.24 91 1009.1
20260506081407 63 74 2.6 7.0 0.00 1.24 1.24 92 1009.1
20260506080908 63 227 2.6 7.8 0.00 1.24 1.24 92 1009.0
20260506080406 63 279 2.6 12.2 0.00 1.24 1.24 92 1009.1
20260506073407 62 146 6.1 12.2 0.01 1.25 1.24 91 1009.0
20260506071906 62 143 6.1 12.2 0.07 1.25 1.24 91 1008.8
20260506071406 62 151 7.8 13.0 0.07 1.25 1.24 91 1008.9
20260506070407 62 150 6.1 13.0 0.07 1.25 1.24 91 1008.9
20260506061906 61 174 4.3 10.4 0.00 1.22 1.17 88 1008.5
20260506061406 61 147 4.3 10.4 0.00 1.24 1.17 88 1008.4
20260506060906 61 139 5.2 10.4 0.00 1.26 1.17 88 1008.6
20260506051406 60 90 2.6 8.7 0.01 1.85 1.17 88 1008.6
20260506050407 59 143 1.7 7.8 0.01 1.90 1.17 88 1008.4
20260506044907 59 49 0.9 2.6 0.02 2.03 1.17 88 1008.5
20260506044407 59 92 1.7 2.6 0.02 2.07 1.17 88 1008.5
20260506043907 59 45 1.7 2.6 0.02 2.09 1.17 88 1008.6
20260506043406 59 31 0.9 4.3 0.02 2.12 1.17 88 1008.5
20260506041906 59 37 1.7 2.6 0.02 2.14 1.17 87 1008.8
20260506041406 59 113 1.7 6.1 0.02 2.14 1.17 87 1008.8
20260506040906 59 37 2.6 5.2 0.02 2.15 1.17 87 1008.8
20260506040406 59 27 2.6 7.0 0.02 2.19 1.17 87 1009.0
20260506034407 58 29 2.6 6.1 0.02 2.31 1.15 87 1008.9
20260506033906 58 36 2.6 6.1 0.07 2.35 1.15 87 1008.8
20260506033407 57 40 2.6 7.8 0.16 2.35 1.15 87 1008.8
20260506031907 57 18 5.2 11.3 0.37 2.40 1.15 89 1008.7
20260506031409 57 58 4.3 10.4 0.50 2.42 1.15 89 1008.6
20260506030906 57 78 1.7 4.3 0.64 2.42 1.15 89 1008.8
20260506024906 58 273 0.0 2.6 0.92 2.41 1.14 89 1009.0
20260506023906 58 58 0.9 2.6 0.88 2.35 1.08 89 1010.0
20260506021906 59 343 1.7 2.6 0.69 2.10 0.78 89 1009.6
20260506020906 59 315 1.7 5.2 0.45 1.85 0.51 89 1009.7
20260506020406 59 327 0.9 1.7 0.27 1.66 0.31 88 1010.0
20260506013410 60 328 0.9 4.3 0.17 1.54 0.17 87 1010.4
20260506011908 60 36 0.9 2.6 0.08 1.46 0.09 86 1010.3
20260506011406 60 107 0.9 2.6 0.06 1.45 0.07 86 1010.4
20260506010906 60 24 1.7 7.0 0.06 1.45 0.06 86 1010.2
20260506010406 60 40 1.7 5.2 0.05 1.43 0.05 85 1010.1
20260506004909 61 49 0.9 2.6 0.02 1.41 0.02 85 1010.3
20260506004406 61 109 0.9 1.7 0.01 1.40 0.01 84 1010.5
20260506003906 61 104 0.9 2.6 0.01 1.40 0.01 84 1010.5
20260506003407 62 109 1.7 5.2 0.01 1.40 0.01 84 1010.5
20260506001406 62 58 0.9 1.7 0.01 1.40 0.01 83 1010.6
20260506000907 62 61 0.9 2.6 0.00 1.39 0.00 83 1010.5
20260506000408 62 36 0.9 2.6 0.00 1.39 0.00 83 1010.5
20260505234905 62 109 0.9 2.6 0.00 1.39 0.00 83 1010.8
20260505234406 62 77 0.9 2.6 0.00 1.39 0.00 83 1010.9
20260505233909 62 358 0.9 1.7 0.00 1.39 0.00 83 1011.1
20260505233409 62 59 0.9 2.6 0.00 1.39 0.00 83 1011.2
20260505231913 62 47 0.9 2.6 0.00 1.39 0.00 84 1011.4
20260505230905 62 108 0.9 4.3 0.00 1.39 0.00 84 1011.5
20260505230407 62 114 0.9 2.6 0.00 1.39 0.00 84 1011.7
20260505224906 62 45 0.9 2.6 0.00 1.39 0.00 84 1011.7
20260505224406 62 79 0.9 2.6 0.00 1.39 0.00 84 1011.7
20260505223406 62 88 1.7 2.6 0.00 1.39 0.00 84 1011.9
20260505221909 62 146 0.9 4.3 0.00 1.39 0.00 84 1012.1
20260505221405 61 140 1.7 2.6 0.00 1.39 0.00 85 1012.2
20260505220906 61 120 0.9 5.2 0.00 1.39 0.00 84 1012.1
20260505220405 61 112 0.9 2.6 0.00 1.39 0.00 84 1012.0
20260505214907 61 60 1.7 2.6 0.00 1.39 1.39 84 1012.2
20260505213407 61 61 0.0 1.7 0.00 1.39 1.39 84 1012.1
20260505211905 61 55 0.9 2.6 0.00 1.39 1.39 84 1012.4
20260505211406 61 50 0.9 2.6 0.00 1.39 1.39 84 1012.4
20260505210907 61 31 0.9 1.7 0.00 1.39 1.39 84 1012.3
20260505210407 61 20 0.9 5.2 0.00 1.39 1.39 84 1012.3
20260505204905 61 59 0.9 2.6 0.00 1.39 1.39 84 1012.4
20260505204406 61 15 0.9 1.7 0.00 1.39 1.39 84 1012.4
20260505203406 62 104 0.0 2.6 0.00 1.39 1.39 83 1012.7
20260505201906 62 86 0.9 2.6 0.00 1.39 1.39 83 1012.7
20260505201406 62 95 0.0 1.7 0.00 1.39 1.39 82 1012.8